User: anonymous   Login
Location: New Plymouth
(39.0670°S, 174.0830°E)
Time: 04:50:36
(UTC+12:00)
Language:

Resurs 01 Rocket - Orbit

View from above orbital plane
View from above orbital plane
View from above satellite
View from above satellite

Ground track
Ground track

The orbit data is extracted from the following two-line orbital elements,

1 23343U 94074B   19138.76430944  .00000025  00000-0  10960-4 0  9995
2 23343  98.0550 188.8442 0006614 355.9818 117.8829 14.76777328320222
Epoch (UTC): 18 May 2019 18:20:36
Eccentricity: 0.0006614
inclination: 98.0550°
perigee height: 635 km
apogee height: 644 km
right ascension of ascending node: 188.8442°
argument of perigee: 355.9818°
revolutions per day: 14.76777328
mean anomaly at epoch: 117.8829°
orbit number at epoch: 32022

The dashed part of the orbit path shows where the satellite is in the earth's shadow,  

DLR